PUCP-Sat-1

operational
NORAD ID: 39442 Int'l Des: 2013-066 Owner: PUCP Country: PE
LEOCIRCULARRETROGRADESSO

Über PUCP-Sat-1

Beschreibung wird geladen...

Live-Position

3D-Globus wird geladen...

Nächste Überflüge

Höhenverlauf

Altitude vs Time

uPlot chart will show altitude changes over time

Zweizeiliger Elementsatz

1 39442U 13066AC 26063.55275514 .00030163 00000-0 10635-2 0 9999
2 39442 97.5775 55.5369 0014311 322.0582 37.9648 15.29121589668256
Epoch: 4. März 2026 • Age: 21 hours

Aktueller Status

Höhe 484.1 km
Geschwindigkeit 7.63 km/s
Subsatellitenpunkt 44.48°N, 73.94°W
Startdatum 21. Nov. 2013
Alter 12.2 years
Typ other

Technische Details

Klassifizierung Payload
Masse 1.17 kg
Trockenmasse 1.17 kg
Gesamtmasse 1.17 kg
Länge 0.10 m
Durchmesser 0.10 m
Spannweite 0.10 m
Form Box
Hersteller PUCP
Bus-Typ Cubesat 1U
Phasenstatus In Orbit
Besitzer/Staat PUCP/PE

Große Konstellationen

Loading constellations...